Location: Newark
(15.4608°S, 41.1635°W)
Time: 17:16:26
(UTC+00:00)

XW-2B - Pass Details

Date: 01 March 2020
Orbit: 509 x 526 km, 97.5° (Epoch: 05 April)

Event Time Altitude Azimuth Distance (km) Brightness Sun altitude
Rises 07:59:55 0° 19° (NNE) 2,639 ? -11.6°
Reaches altitude 10° 08:02:02 10° 22° (NNE) 1,759 ? -11.1°
Maximum altitude 08:05:46 59° 102° (ESE) 613 ? -10.2°
Drops below altitude 10° 08:09:33 10° 182° (S) 1,780 ? -9.3°
Sets 08:11:41 0° 185° (S) 2,675 ? -8.8°
